Location: Unspecified
(49.9820°N, 20.4363°E)
Time: 00:41:10
(UTC+02:00)

ISS - Pass Details

Date: 13 July 2018
Orbit: 402 x 408 km, 51.6° (Epoch: 16 July)

Event Time Altitude Azimuth Distance (km) Brightness Sun altitude
Exits shadow 03:30:48 - 271° (W) 2,049 -0.6 -9.2°
Reaches altitude 10° 03:32:13 10° 274° (W) 1,470 -1.3 -9.1°
Maximum altitude 03:35:29 64° 356° (N) 458 -3.4 -8.8°
Drops below altitude 10° 03:38:47 10° 79° (E) 1,473 -0.1 -8.4°
Sets 03:40:53 0° 83° (E) 2,335 0.9 -8.2°
